Lutsel Ke, Northwest Territories

7:03 AM MST on February 22, 2017 (GMT -0700)
Lutsel

Weather History for CXLU - July, 2013

Change the Weather History Date:

Monday, July 15, 2013

  Actual Average Record
Temperature  
Mean Temperature 46 °F -  
Max Temperature 54 °F - - ()
Min Temperature 39 °F - - ()
Degree Days  
Heating Degree Days 18    
Moisture  
Dew Point 39 °F    
Average Humidity 73    
Maximum Humidity 94    
Minimum Humidity 46    
Precipitation  
Precipitation 0.00 in - - ()
Sea Level Pressure  
Sea Level Pressure 29.92 in    
Wind  
Wind Speed 2 mph ()    
Max Wind Speed 12 mph    
Max Gust Speed -    
T = Trace of Precipitation, MM = Missing Value Source: Averaged Metar Reports

Daily Weather History Graph

Daily Weather History Graph

Search for Another Location

Airport or City:

Trip Planner

Search our weather history database for the weather conditions in past years. The results will help you decide how hot, cold, wet, or windy it might be!

Date:

Astronomy

Jul. 15, 2013 Rise Set
Actual Time 4:01 AM MDT 10:54 PM MDT
Civil Twilight 1:49 AM MDT 12:55 AM MDT
Nautical Twilight Sun does not rise Sun does not rise
Astronomical Twilight Sun does not rise Sun does not rise
Moon 2:15 PM MDT (7/15) 11:46 PM MDT (7/15)
Length of Visible Light 23h 05m
Length of Day
18h 53m
Waxing Crescent, 46% of the Moon is Illuminated
Jul 15
Waxing Crescent
Jul 15
First Quarter
Jul 22
Full
Jul 29
Last Quarter
Aug 6
New

Hourly Weather History & Observations

Time (MDT) Temp. Windchill Dew Point Humidity Pressure Visibility Wind Dir Wind Speed Gust Speed Precip Events Conditions
12:00 AM 48 °F - 45 °F 84% 29.85 in - Calm Calm - -  
12:00 AM 48.4 °F - 44.8 °F 87% 29.86 in - Calm Calm - N/A   Unknown
1:00 AM 43.9 °F - 40.5 °F 88% 29.86 in - Calm Calm - N/A   Unknown
2:00 AM 40.6 °F - 37.0 °F 87% 29.86 in - Calm Calm - N/A   Unknown
3:00 AM 39.7 °F - 37.6 °F 92% 29.87 in - Calm Calm - N/A   Unknown
4:00 AM 43.5 °F - 41.7 °F 93% 29.86 in - SW 1.2 mph - N/A   Unknown
5:00 AM 41.5 °F - 39.9 °F 94% 29.87 in - SSW 1.2 mph - N/A   Unknown
6:00 AM 44 °F - 42 °F 91% 29.88 in - Calm Calm - -  
6:00 AM 43.9 °F - 42.3 °F 94% 29.87 in - SW 1.2 mph - N/A   Unknown
7:00 AM 46.0 °F - 43.0 °F 89% 29.88 in - Calm Calm - N/A   Unknown
8:00 AM 47.8 °F - 41.5 °F 79% 29.88 in - NE 3.5 mph - N/A   Unknown
9:00 AM 46.9 °F - 42.3 °F 84% 29.89 in - ENE 5.8 mph - N/A   Unknown
10:00 AM 48.4 °F - 41.0 °F 76% 29.90 in - ENE 2.3 mph - N/A   Unknown
11:00 AM 48.7 °F - 39.9 °F 72% 29.91 in - NNW 1.2 mph - N/A   Unknown
12:00 PM 49 °F - 40 °F 62% 29.92 in - NW 4.6 mph - -  
12:00 PM 49.3 °F - 39.9 °F 70% 29.92 in - WNW 4.6 mph - N/A   Unknown
1:00 PM 50.0 °F - 36.7 °F 60% 29.93 in - West 4.6 mph - N/A   Unknown
2:00 PM 51.1 °F - 37.0 °F 59% 29.94 in - WNW 5.8 mph - N/A   Unknown
3:00 PM 51.3 °F - 37.9 °F 60% 29.94 in - WNW 6.9 mph - N/A   Unknown
4:00 PM 53.1 °F - 39.4 °F 60% 29.95 in - NW 6.9 mph - N/A   Unknown
5:00 PM 54.0 °F - 35.4 °F 50% 29.96 in - NNW 11.5 mph - N/A   Unknown
6:00 PM 51 °F - 36 °F 46% 29.97 in - NNW 10.4 mph - -  
6:00 PM 51.4 °F - 36.5 °F 57% 29.98 in - NNW 9.2 mph - N/A   Unknown
7:00 PM 51.1 °F - 36.7 °F 58% 29.98 in - NW 3.5 mph - N/A   Unknown
8:00 PM 51.3 °F - 34.3 °F 52% 29.99 in - NNW 9.2 mph - N/A   Unknown
9:00 PM 49.8 °F - 35.8 °F 59% 30.01 in - NNW 5.8 mph - N/A   Unknown
10:00 PM 48.6 °F - 35.6 °F 61% 30.02 in - North 3.5 mph - N/A   Unknown
11:00 PM 43.5 °F 41.9 °F 37.8 °F 80% 30.03 in - NW 3.5 mph - N/A   Unknown